一网星座-0495星 (ONEWEB-0495 )

导读 | 星芒AI

ONEWE-0495 是 OneWeb 卫星星座计划中的一颗低轨通信卫星,旨在为全球提供高速互联网服务。该卫星由空客防务与航天公司制造,采用标准化设计以降低发射和运营成本。它运行在约 1200 公里的近地轨道,与其他 OneWeb 卫星协同工作,支持偏远和农村地区的宽带接入。该星座计划由数百颗卫星组成,致力于实现全球覆盖,提升数字连接能力。ONEWE-0495 的成功部署有助于推动 OneWeb 在全球卫星互联网市场的竞争力。

基本信息
目录编号:
54115
目录名称:
ONEWEB-0495
国际标识:
2022-138C
轨道中心:
EARTH
卫星名称:
一网星座-0495星
卫星全名:
一网星座-0495星 (ONEWEB-0495 )
卫星状态:
在轨 (已飞行1150 天)
发射日期:
2022-10-22 UTC
国别 :
英国 (GB)
星等 :
--
轨道信息
数据来源 国际轨道数据
星历时间: 2025-12-15T05:40:13+0800
21小时前
查看轨道信息
半长轴: 7563.912km
偏心率: 0.0002415
轨道倾角: 87.920°
近地点辐角 77.870°
升交点赤经 341.643°
平近点角 282.271°
近地点: 1183.95km
远地点: 1187.604km
周期: 109.114分钟
每日圈数: 13.197239
详细信息
平衡模式:
三轴稳定
覆盖范围:
全球
运营商:
一网卫星公司
运营商所在国:
英国
制造商(研发单位):
一网卫星公司
制造商所在国:
英国
使用方式:
暂无
卫星简介
OneWeb卫星网络由648颗重约125公斤的微型卫星组成,运行在1200公里的轨道上。 每颗卫星都能够提供至少每秒8千兆位的吞吐量,以使用其高吞吐量的Ku频段有效载荷为家庭和移动平台提供互联网接入。该卫星仍在工作。
2D轨道图
3D轨道图
轨道高度分析图
轨道倾角分析图
轨道综合分析图
查看轨道综合分析图